World > North America > United States > Mississippi > Ripley  

Ripley, MS Hourly Weather Updates

Feedback E-mail the Weather

Quick Clicks

Ripley, MS Weather Maps

°F °C°F °C
Ripley Weather Map
UTC Time: 6/14/2024, 15:04
Your Time:

Ripley, MS Regional Weather

Expires:202406141500;;004205
ASUS44 KJAN 141410
RWRMS 

MISSISSIPPI HOURLY WEATHER ROUNDUP
NATIONAL WEATHER SERVICE JACKSON MS
900 AM CDT FRI JUN 14 2024

NOTE: "FAIR: INDICATES FEW OR NO CLOUDS BELOW 12,000 FEET WITH NO
SIGNIFICANT WEATHER AND/OR OBSTRUCTIONS TO VISIBILITY.


MSZ003>006-009-014>017-022>024-029>033-037>039-141500-
NORTHEAST MISSISSIPPI
  
CITY           SKY/WX    TMP DP  RH WIND       PRES   REMARKS
ABERDEEN       SUNNY     81  73  78 CALM      30.01R                  
COLUMBUS AFB   MOSUNNY   83  70  64 N5        29.96S                  
CORINTH        MOSUNNY   79  68  69 CALM      30.00F                  
GOLDN TRIANGLE SUNNY     81  69  67 N5        30.00F                  
IUKA           MOSUNNY   80  70  70 CALM      30.02R                  
LOUISVILLE     SUNNY     79  64  61 N3        30.03F                  
STARKVILLE     SUNNY     79  68  69 CALM      29.98F                  
TUPELO         MOSUNNY   81  66  60 CALM      30.00R                  
$$


SKY/WX - Weather  TMP - Temperature  DP - Dew Point  RH - Humidity
WIND - Wind Direction/Speed PRES - Barometric Pressure VSB - Visibility
WCI - Wind Chill Index E13G22 Wind - East Wind 13 mph/Gusts of 22 mph

Trending Headlines

Trending Entertainment Headlines

Ripley Radar Loop

Use the map search tool if you want to place a location marker on the radar map...

Ripley Quick Facts

National Two Day Weather Forecast


E-mail the Ripley Weather Forecast

Voice your opinion or tell us about page issues...